NOAA 17 DEB, 48719

Orbit data source: Space-Track

NOAA 17 DEB, 48719 is space debris in SSO originally from a launch on Mon, 24 Jun 2002 UTC launched from the Air Force Western Test Range (AFWTR). Debris objects in space refer to the collection of defunct objects orbiting the Earth. Examples of debris include non-operational satellites, rocket bodies, and fragments generated from explosions, collisions, or faulty payload assembly.

Loading next visibility...
Identifier
48719, 2002-032BC
Orbit
SSO
Country
Flag of USUS
Related business
Manufacturer
Unknown
Mission
Spacecraft
Bus & Motor
Unknown
Mass
Unknown
Launch date (UTC)
2002-06-24 (24 years ago)
Launch vehicle
Unknown
Launch site
Air Force Western Test Range (AFWTR)
Object type
Payload
Rocket body
Debris
Shape & HBR
Unknown shape, 0.1 m
Radar Cross Section
Medium (>0.1 m² and <1 m²)

Expand to show TLE details & history
Last TLE update: 2 days ago

TLE from 2 days ago
0 NOAA 17 DEB
1 48719U 02032BC  26171.16837961  .00000304  00000-0  29042-3 0  9991
2 48719  98.4014 243.2968 0323276 132.2250 230.6817 13.65280235261785
Epoch: 2026-06-20T04:02Z
TLE epoch observation values (Epoch: 2026-06-20T04:02:27.998Z)
Latitude
0.00006°
Longitude
-85.70674°
Altitude
1,175.406 km
Speed
7.189 km/s
True Right ascension
16h 13m 11s
True Declination
0° 00' 00"
Sunlit
Object was in full shadow at epoch
Visualization orbit readout
Latitude
Unknown
Longitude
Unknown
Altitude
Unknown
Speed
Unknown
Apparent Right ascension
Unknown
Apparent Declination
Unknown
Sunlit
N/A
Visualization observer readout
Local Sidereal Time
21:37:23
Azimuth
Unknown
Elevation
Unknown
Doppler factor
Unknown
Orbital elements
Apogee altitude
1,252.741 km
Perigee altitude
774.815 km
Semi-major axis
7,391.915 km
Eccentricity
0.03233
Inclination
98.4014°
RAAN
243.2968°
Arg. of periapsis
132.225°
True anomaly
227.8885°
Mean anomaly
230.6817°
Eccentric anomaly
229.27792°
Mean motion
3.41513 °/min
Orbital period
105.41 mins
BSTAR
0.00029042
Loading maneuver chart data...
Computing Atmospheric mass density...

Documentation

Showing up to 5 results
|